TimeCDT,TemperatureF,Dew PointF,Humidity,Sea Level PressureIn,VisibilityMPH,Wind Direction,Wind SpeedMPH,Gust SpeedMPH,PrecipitationIn,Events,Conditions,WindDirDegrees,DateUTC
12:53 AM,84.0,71.1,65,29.85,10.0,WSW,12.7,-,N/A,,Clear,240,2013-06-27 05:53:00
1:53 AM,84.0,71.1,65,29.85,10.0,WSW,11.5,20.7,N/A,,Clear,250,2013-06-27 06:53:00
2:53 AM,82.9,72.0,69,29.86,10.0,West,9.2,-,N/A,,Clear,260,2013-06-27 07:53:00
3:53 AM,82.0,72.0,71,29.86,10.0,WSW,9.2,-,N/A,,Clear,250,2013-06-27 08:53:00
4:53 AM,82.0,72.0,71,29.87,10.0,West,9.2,-,N/A,,Clear,270,2013-06-27 09:53:00
5:53 AM,81.0,73.0,77,29.88,10.0,West,8.1,-,N/A,,Clear,280,2013-06-27 10:53:00
6:53 AM,81.0,73.0,77,29.89,10.0,West,6.9,-,N/A,,Clear,260,2013-06-27 11:53:00
7:53 AM,84.0,73.9,72,29.90,10.0,West,8.1,-,N/A,,Clear,260,2013-06-27 12:53:00
8:53 AM,87.1,75.0,67,29.90,10.0,WNW,9.2,-,N/A,,Clear,290,2013-06-27 13:53:00
9:53 AM,91.9,75.9,59,29.91,10.0,West,5.8,-,N/A,,Clear,280,2013-06-27 14:53:00
10:53 AM,91.9,75.9,59,29.91,10.0,WNW,6.9,-,N/A,,Partly Cloudy,300,2013-06-27 15:53:00
11:53 AM,93.9,77.0,58,29.91,10.0,Variable,3.5,-,N/A,,Scattered Clouds,0,2013-06-27 16:53:00
12:53 PM,97.0,75.9,51,29.89,10.0,NW,4.6,-,N/A,,Partly Cloudy,310,2013-06-27 17:53:00
1:53 PM,98.1,75.0,48,29.88,10.0,Variable,4.6,-,N/A,,Partly Cloudy,0,2013-06-27 18:53:00
2:53 PM,100.0,75.0,45,29.87,10.0,WSW,4.6,-,N/A,,Partly Cloudy,240,2013-06-27 19:53:00
3:53 PM,96.1,75.0,51,29.85,10.0,Variable,3.5,-,N/A,Thunderstorm,Thunderstorm,0,2013-06-27 20:53:00
4:32 PM,89.6,73.4,59,29.87,10.0,South,9.2,-,N/A,Thunderstorm,Clear,180,2013-06-27 21:32:00
4:53 PM,82.9,73.0,72,29.88,3.0,Variable,6.9,27.6,0.08,Rain-Thunderstorm,Heavy Thunderstorms and Rain,0,2013-06-27 21:53:00
5:53 PM,77.0,69.1,76,29.88,10.0,SW,8.1,18.4,0.05,Thunderstorm,Thunderstorm,220,2013-06-27 22:53:00
6:27 PM,78.8,69.8,74,29.87,10.0,West,6.9,-,N/A,,Scattered Clouds,270,2013-06-27 23:27:00
6:42 PM,78.8,69.8,74,29.87,10.0,West,3.5,-,N/A,Thunderstorm,Clear,270,2013-06-27 23:42:00
6:53 PM,79.0,70.0,74,29.88,10.0,WSW,16.1,20.7,N/A,Thunderstorm,Clear,250,2013-06-27 23:53:00
7:10 PM,78.8,69.8,74,29.88,10.0,West,8.1,-,N/A,,Clear,260,2013-06-28 00:10:00
7:53 PM,79.0,71.1,77,29.85,10.0,SW,8.1,-,N/A,,Unknown,230,2013-06-28 00:53:00
8:53 PM,78.1,71.1,79,29.84,10.0,West,5.8,-,N/A,,Clear,280,2013-06-28 01:53:00
9:53 PM,78.1,69.1,74,29.81,10.0,Calm,Calm,-,N/A,,Clear,0,2013-06-28 02:53:00
10:53 PM,75.9,71.1,85,29.83,10.0,West,4.6,-,N/A,,Clear,260,2013-06-28 03:53:00
11:53 PM,78.1,70.0,76,29.86,10.0,West,6.9,-,N/A,,Clear,260,2013-06-28 04:53:00